Volver al catálogo

CHINASAT 19

ActivoComunicacionesGEO
NORAD 54230·PAYLOAD·🇨🇳 China

Lanzado Nov 5, 2022 desde Xichang Satellite Launch Center

Loading…

TLE

ActualizadoSource: Space-Track

Época: Sep 14, 2026, 21:25 UTC

1 54230U 22148A   26257.89253395 -.00000089  00000-0  00000-0 0  9995
2 54230   0.0135 218.5935 0004470 319.8371 299.9171  1.00272615 14282

Sigue CHINASAT 19 en tiempo real con AllMySat

Download on the App Store